OpenBCM V1.08-5-g2f4a (Linux)

Packet Radio Mailbox

IZ3LSV

[San Dona' di P. JN]

 Login: GUEST





  
I0OJJ  > KEPS     06.03.25 06:04l 332 Lines 15720 Bytes #112 (0) @ AMSAT
BID : ORB25065.1
Read: GUEST
Subj: 2Line Orbital Elements 25065.AMSAT
Path: IZ3LSV<ED1ZAC<EA5URD
Sent: 250306/0350Z @:EA5URD.EAMU.ESP.EU #:9752 XFBB7.07 Bid:ORB25065.1

R:250306/0345Z @:EA2RCF.EAVI.ESP.EU #:62339 [Vitoria] $:ORB25065.1
R:250306/0345z @:I0OJJ.ITA.EU [Rome] obcm1.08-6-g5b69
From: I0OJJ @ I0OJJ.ITA.EU (Gustavo)
To:   KEPS @ AMSAT
X-Info: This message was generated automatically


QST de W1STR

AMSAT Orbital Elements for Amateur Satellites in TLE Format
From Orbital Analysis Office
New England Sci-Tech STEM Education Center
Natick, MA March 06, 2025
To all radio amateurs


These element sets describe the orbits of various satellites 
in use by the amateur radio community. For details see:
www.amsat.org/keplerian-elements-formats/

A daily update of element sets is available at:
www.amsat.org/tle/daily-bulletin.txt
or without bulletin text:
www.amsat.org/tle/dailytle.txt


AO-07
1 07530U 74089B   25064.57974080 -.00000037  00000-0  59512-4 0  9997
2 07530 101.9950  67.8174 0011914 306.1952 165.5326 12.53686737301793
UO-11
1 14781U 84021B   25064.85119408  .00003199  00000-0  34709-3 0  9997
2 14781  97.7433  33.2105 0006299 300.2025  59.8568 14.88836952208395
AO-27
1 22825U 93061C   25064.76073105  .00000210  00000-0  97344-4 0  9998
2 22825  98.7500 125.7874 0009000  40.1641 320.0205 14.30742410640287
FO-29
1 24278U 96046B   25064.33947946 -.00000011  00000-0  27253-4 0  9996
2 24278  98.5855 330.8568 0349069 231.8011 125.1217 13.53239434409756
NOAA-15
1 25338U 98030A   25064.81753493  .00000288  00000-0  13633-3 0  9995
2 25338  98.5464  92.2083 0009126 280.2478  79.7674 14.26900730394741
GO-32
1 25397U 98043D   25064.80122357  .00000213  00000-0  11258-3 0  9991
2 25397  98.9608  41.9719 0002250 108.3201 251.8222 14.24266064384870
ISS
1 25544U 98067A   25064.59013294  .00013582  00000-0  24764-3 0  9995
2 25544  51.6357 100.1447 0006056 347.3954 116.6280 15.49745537499093
NO-44
1 26931U 01043C   25064.24182104  .00000468  00000-0  20640-3 0  9991
2 26931  67.0524  16.9077 0005795 265.9443  94.0997 14.31642817223312
SO-50
1 27607U 02058C   25064.55832271  .00002200  00000-0  29635-3 0  9999
2 27607  64.5537 136.8311 0045108 357.6997   2.3893 14.81075670195000
CO-55
1 27844U 03031E   25064.55396050  .00000657  00000-0  30577-3 0  9995
2 27844  98.6796  74.0591 0010840 104.9928 255.2451 14.23854449124975
CO-57
1 27848U 03031J   25063.75500968  .00000598  00000-0  28381-3 0  9999
2 27848  98.6823  73.3479 0010577 122.2485 237.9720 14.23208860124599
RS-22
1 27939U 03042A   25064.84453303  .00002311  00000-0  37734-3 0  9990
2 27939  98.3174 232.0539 0010804 316.5857 150.5377 14.71878240146748
NOAA-18
1 28654U 05018A   25064.78332666  .00000317  00000-0  19160-3 0  9998
2 28654  98.8480 145.3243 0014701  45.2460 314.9906 14.13533208 20217
CO-58
1 28895U 05043F   25064.38729614  .00003887  00000-0  65070-3 0  9998
2 28895  98.2326 207.6595 0014057 249.9930 109.9762 14.70328430 32800
CO-65
1 32785U 08021C   25064.84879663  .00009636  00000-0  72600-3 0  9996
2 32785  97.7773  35.4692 0010825 163.3952 196.7629 15.02652492914764
AAUSAT2
1 32788U 08021F   25064.51934253  .00143988  00000-0  22957-2 0  9998
2 32788  97.6066  57.2565 0004379  84.6684 275.5067 15.52711360918318
CO-66
1 32791U 08021J   25064.66971015  .00020195  00000-0  10883-2 0  9994
2 32791  97.7215  42.8600 0006710 119.3394 240.8509 15.14811675916035
RS-30
1 32953U 08025A   25064.79259143  .00000007  00000-0 -18668-4 0  9995
2 32953  82.4996 286.7702 0018662 254.6399 105.2618 12.43159666761623
NOAA-19
1 33591U 09005A   25064.77409417  .00000287  00000-0  17724-3 0  9992
2 33591  99.0094 128.8994 0012789 274.0439  85.9271 14.13301229828579
SRMSAT
1 37841U 11058D   25064.25019280  .00000597  00000-0  18116-3 0  9993
2 37841  19.9733  17.4600 0011894  85.9117  51.8986 14.11376399691488
ZACUBE-1
1 39417U 13066B   25064.87191296  .00010213  00000-0  91950-3 0  9994
2 39417  97.7691  22.5542 0046064  14.2650 345.9859 14.94982361610606
Delfi-N3xt
1 39428U 13066N   25064.76836839  .00014188  00000-0  15144-2 0  9998
2 39428  97.8359 343.6262 0087003 316.8963  42.5461 14.86144398605011
GOMX-1
1 39430U 13066Q   25064.74734544  .00003477  00000-0  54943-3 0  9999
2 39430  97.6972 289.2533 0134768 138.5756 222.5763 14.66978381601352
LO-74
1 39440U 13066AA  25064.40203200  .00007660  00000-0  79908-3 0  9999
2 39440  97.8405   9.7728 0065203 135.7980 224.8472 14.88445034607123
AO-73
1 39444U 13066AE  25064.43940236  .00016445  00000-0  13063-2 0  9993
2 39444  97.7556  26.2687 0041472 354.0764   5.9963 14.99857610609167
DTUSAT-2
1 40030U 14033W   25064.43192413  .00014160  00000-0  97552-3 0  9995
2 40030  98.0465  31.8085 0011128  38.1224 322.0786 15.05921794581914
EO-80
1 40032U 14033Y   25064.39086410  .00014741  00000-0  10133-2 0  9995
2 40032  98.0339  31.5516 0007969 340.0045  20.0867 15.06019609581881
LILACSAT-2
1 40908U 15049K   25064.80620761  .00017042  00000-0  49348-3 0  9992
2 40908  97.5159  83.0038 0011474 136.3002 223.9152 15.35586726523511
IO-86
1 40931U 15052B   25038.81889873  .00001817  00000-0  15548-3 0  9993
2 40931   6.0001 108.1159 0012838 187.7041 172.2889 14.78568669506492
Horyu-4
1 41340U 16012D   25064.32134926  .00031867  00000-0  10338-2 0  9991
2 41340  31.0000  56.6195 0007331 153.7899 206.3117 15.30744898497993
Lapan A3
1 41603U 16040E   25064.77983013  .00005685  00000-0  20565-3 0  9995
2 41603  97.1406  73.1993 0009342 246.9983 113.0273 15.28764194483148
CAS-2T
1 41847U 16066G   25064.32111455  .00002867  00000-0  41428-3 0  9997
2 41847  98.4279 139.6128 0348709 109.6068 254.3110 14.43074369437131
CAS-4B
1 42759U 17034B   25064.74232228  .00057019  00000-0  99620-3 0  9990
2 42759  43.0102 167.5007 0017607 337.0989  22.9084 15.49678050427660
CAS-4A
1 42761U 17034D   25064.70144875  .00060938  00000-0  10423-2 0  9996
2 42761  43.0137 165.6104 0018792 342.9974  17.0255 15.50227743427670
TechnoSat
1 42829U 17042E   25064.46522245  .00006636  00000-0  52901-3 0  9997
2 42829  97.3900 237.8052 0011993 248.6210 111.3735 15.00587276416304
AO-91
1 43017U 17073E   25064.56835233  .00012695  00000-0  67457-3 0  9990
2 43017  97.5446 297.8291 0181958 132.7296 228.9410 15.02202338394785
S-Net D
1 43186U 18014G   25064.68331003  .00009169  00000-0  56470-3 0  9997
2 43186  97.5701 328.6243 0008996 183.5085 176.6083 15.10176125387898
S-Net B
1 43187U 18014H   25064.68755198  .00008722  00000-0  53752-3 0  9997
2 43187  97.5706 328.5954 0009882 179.3215 180.8029 15.10159097387891
S-Net A
1 43188U 18014J   25064.28644999  .00009672  00000-0  59535-3 0  9990
2 43188  97.5713 328.3366 0009706 181.3555 178.7649 15.10173991387837
S-Net C
1 43189U 18014K   25064.68973344  .00008609  00000-0  53048-3 0  9996
2 43189  97.5729 328.7332 0011591 173.9332 186.2039 15.10155345386443
Ten-Koh
1 43677U 18084G   25064.48461682  .00006628  00000-0  54214-3 0  9995
2 43677  98.0926 232.9107 0009913 223.4565 136.5876 14.99662001345833
PO-101
1 43678U 18084H   25064.80230036  .00004468  00000-0  38855-3 0  9992
2 43678  98.0950 237.3483 0008121 242.3980 117.6417 14.97494622346043
QO-100
1 43700U 18090A   25064.30308711  .00000137  00000-0  00000-0 0  9993
2 43700   0.0208 239.9394 0001204 116.7303 301.5063  1.00270608 22975
MinXSS-2
1 43758U 18099A   25064.18939498  .00024426  00000-0  10951-2 0  9998
2 43758  97.5142 130.1467 0013875 134.0971 226.1409 15.21127567342299
AO-95
1 43770U 18099N   25064.15209165  .00012604  00000-0  68870-3 0  9999
2 43770  97.5055 123.4111 0011712 180.9598 179.1614 15.14382865341942
RANGE-A
1 43773U 18099R   25064.68123648  .00008471  00000-0  55975-3 0  9990
2 43773  97.4631 115.8806 0012391 156.1562 204.0243 15.07577431341763
MOVE-II
1 43780U 18099Y   25064.45656151  .00099839  00000-0  20722-2 0  9992
2 43780  97.4782 135.1971 0004270 150.2675 209.8817 15.45320977342824
SNUSat 2
1 43782U 18099AA  25064.41774852  .00013391  00000-0  77620-3 0  9998
2 43782  97.4746 121.1757 0013913 124.5579 235.6966 15.12223645341957
SnugLite
1 43784U 18099AC  25064.40038204  .00015523  00000-0  84070-3 0  9999
2 43784  97.4556 120.5554 0005020 124.8534 235.3170 15.14696636342063
ITASat 1
1 43786U 18099AE  25064.72372148  .00009765  00000-0  58825-3 0  9994
2 43786  97.4704 121.2460 0015476 172.4540 187.6926 15.10894165341976
EAGLET 1
1 43790U 18099AJ  25064.43306853  .00008584  00000-0  56577-3 0  9997
2 43790  97.4903 121.1952 0013126 155.0220 205.1646 15.07663314341576
ESEO
1 43792U 18099AL  25064.49217998  .00003847  00000-0  29786-3 0  9995
2 43792  97.4587 115.7495 0011615 126.0042 234.2262 15.01963694341393
CSIM
1 43793U 18099AM  25064.44055553  .00106523  00000-0  21844-2 0  9999
2 43793  97.4964 137.2108 0006153 122.0808 238.1039 15.45639471342667
JO-97
1 43803U 18099AX  25064.43019649  .00019225  00000-0  96335-3 0  9996
2 43803  97.4804 124.5140 0009166 119.8950 240.3196 15.17369012342171
Suomi 100
1 43804U 18099AY  25064.43702892  .00016773  00000-0  88658-3 0  9990
2 43804  97.4871 124.0542 0014312 121.5554 238.7078 15.15464309342124
ISAT
1 43879U 18111D   25064.19550893  .00029498  00000-0  12053-2 0  9995
2 43879  97.6012 336.7992 0010465 161.6622 198.4994 15.24279926338989
UWE-4
1 43880U 18111E   25064.54704066  .00021546  00000-0  95851-3 0  9993
2 43880  97.5954 336.2281 0013142 175.5397 184.5958 15.21431264339001
Sparrow
1 43881U 18111F   25064.70590452  .00029180  00000-0  11592-2 0  9995
2 43881  97.6140 339.8561 0006566 195.0490 165.0553 15.25258746337147
Prox-1
1 44339U 19036A   25064.85535220  .00017665  00000-0  24241-2 0  9999
2 44339  23.9992 329.2681 0007260  57.5713 302.5485 14.76793335303925
SONATE
1 44400U 19038Q   25064.57158966  .00087973  00000-0  99380-3 0  9993
2 44400  97.7082  81.0512 0007122 224.1007 135.9682 15.62160603314453
